Flag for Marshall Islands Weather past 2 weeks in Kwajalein, Marshall Islands

Now
84 °F

Scattered clouds.


Feels Like: 91 °F
Forecast: 82 / 86 °F
Wind: 14 mph from Northeast

Location: Kwajalein / Bucholz

Current Time: Jun 3, 2015 at 5:59:22 PM

Latest Report: Jun 3, 2015 at 5:20 PM


Visibility: 10 mi

Pressure: 29.82 "Hg

Humidity: 71%

Dew point: 74 °F

Location of KwajaleinLocation

Historic Weather in Kwajalein — Graph

°F

Kwajalein temperature yesterday

Maximum temperature yesterday: 86 °F (at 3:00 PM)
Minimum temperature yesterday: 80 °F (at 9:00 AM)
Average temperature yesterday: 82 °F

Past Weeks' High & Low Weather Summary

 TemperatureHumidityPressure
High88 °F (May 31, 3:00 PM)96% (May 26, 7:40 AM)29.97 "Hg (May 26, 7:40 AM)
Low76 °F (May 26, 7:40 AM)58% (May 21, 12:20 PM)29.76 "Hg (May 31, 4:20 PM)
Average82 °F76%29.87 "Hg
* Reported May 19 4:20 PM — Jun 3 4:40 PM, Kwajalein, Weather by CustomWeather, © 2015

Note: Actual official high and low records may vary slightly from our data, if they occured in-between our weather recording intervals... More about our weather records

Advertising

Kwajalein weather history for previous 24 hours

 ConditionsComfort  
Time TempWeatherWind HumidityBarometerVisibility
4:40 PM
Wed, Jun 3
84 °FScattered clouds.13 mph70%29.81 "Hg10 mi
4:20 PM85 °FBroken clouds.12 mph69%29.82 "Hg10 mi
3:40 PM85 °FScattered clouds.12 mph68%29.82 "Hg10 mi
3:20 PM86 °FThundershowers. Broken clouds.13 mph68%29.83 "Hg10 mi
3:00 PM86 °FThunderstorms. Scattered clouds.15 mph68%29.83 "Hg10 mi
2:40 PM86 °FScattered clouds.14 mph67%29.83 "Hg10 mi
2:20 PM86 °FScattered clouds.15 mph67%29.84 "Hg10 mi
2:00 PM86 °FThunderstorms. Cloudy.15 mph67%29.84 "Hg10 mi
1:20 PM86 °FScattered clouds.16 mph67%29.85 "Hg10 mi
1:00 PM87 °FScattered clouds.13 mph67%29.86 "Hg10 mi
12:40 PM87 °FThundershowers. Broken clouds.14 mph67%29.86 "Hg10 mi
12:20 PM87 °FScattered clouds.15 mph68%29.87 "Hg10 mi
12:00 PM86 °FThundershowers. Scattered clouds.15 mph68%29.88 "Hg10 mi
11:40 AM86 °FThundershowers. Partly sunny.15 mph68%29.88 "Hg10 mi
11:20 AM87 °FScattered clouds.15 mph68%29.88 "Hg10 mi
11:00 AM86 °FThundershowers. Sunny.15 mph68%29.87 "Hg10 mi
10:40 AM86 °FSunny.16 mph67%29.88 "Hg10 mi
10:20 AM86 °FSunny.15 mph68%29.88 "Hg10 mi
9:40 AM85 °FScattered clouds.14 mph69%29.88 "Hg10 mi
9:00 AM84 °FScattered clouds.16 mph72%29.87 "Hg10 mi
8:20 AM83 °FScattered clouds.16 mph73%29.86 "Hg10 mi
8:00 AM82 °FScattered clouds.15 mph75%29.86 "Hg10 mi
7:40 AM82 °FThundershowers. Scattered clouds.16 mph75%29.86 "Hg10 mi
7:20 AM82 °FPartly sunny.15 mph76%29.86 "Hg10 mi
7:00 AM82 °FBroken clouds.15 mph76%29.84 "Hg10 mi
6:20 AM82 °FThundershowers. Partly cloudy.14 mph77%29.83 "Hg10 mi
6:00 AM82 °FPassing clouds.15 mph77%29.82 "Hg10 mi
5:20 AM81 °FPassing clouds.14 mph78%29.82 "Hg10 mi
5:00 AM81 °FPassing clouds.14 mph79%29.82 "Hg10 mi
4:40 AM81 °FPartly cloudy.14 mph81%29.81 "Hg10 mi
4:20 AM80 °FMostly cloudy.14 mph83%29.82 "Hg10 mi
4:00 AM80 °FMostly cloudy.14 mph86%29.82 "Hg10 mi
3:20 AM79 °FOvercast.10 mph87%29.82 "Hg10 mi
3:00 AM79 °FMostly cloudy.7 mph85%29.83 "Hg10 mi
2:40 AM80 °FRain. Partly cloudy.10 mph83%29.83 "Hg7 mi
2:20 AM80 °FPassing clouds.20 mph82%29.83 "Hg10 mi
2:00 AM80 °FPartly cloudy.10 mph81%29.83 "Hg10 mi
1:20 AM80 °FPassing clouds.10 mph83%29.85 "Hg10 mi
1:00 AM80 °FClear.10 mph82%29.85 "Hg10 mi
12:20 AM81 °FPartly cloudy.14 mph81%29.87 "Hg10 mi
12:00 AM81 °FLight rain. Mostly cloudy.17 mph78%29.86 "Hg7 mi
11:40 PM
Tue, Jun 2
81 °FMostly cloudy.14 mph76%29.87 "Hg10 mi
11:20 PM81 °FPartly cloudy.14 mph76%29.87 "Hg10 mi
11:00 PM82 °FPassing clouds.18 mph75%29.87 "Hg10 mi
10:20 PM82 °FClear.15 mph75%29.87 "Hg10 mi
10:00 PM82 °FClear.14 mph75%29.87 "Hg10 mi
9:40 PM82 °FClear.17 mph75%29.86 "Hg10 mi
9:20 PM82 °FPartly cloudy.16 mph75%29.86 "Hg10 mi
9:00 PM82 °FPartly cloudy.18 mph75%29.85 "Hg10 mi
8:20 PM81 °FClear.17 mph76%29.84 "Hg10 mi
8:00 PM81 °FClear.17 mph78%29.83 "Hg10 mi
7:20 PM81 °FClear.18 mph78%29.82 "Hg10 mi
7:00 PM82 °FSunny.20 mph77%29.81 "Hg10 mi
6:40 PM83 °FScattered clouds.16 mph75%29.81 "Hg10 mi
6:20 PM83 °FDrizzle. Broken clouds.16 mph74%29.80 "Hg7 mi
6:00 PM84 °FScattered clouds.21 mph71%29.80 "Hg10 mi
5:40 PM84 °FScattered clouds.15 mph71%29.80 "Hg10 mi
5:20 PM84 °FScattered clouds.15 mph71%29.79 "Hg10 mi
5:00 PM84 °FSunny.16 mph71%29.79 "Hg10 mi
Weather by CustomWeather, © 2015

See weather overviewHow to use our weather pages